Find Starlink 3739

NORAD ID: 52266 Int'l Des: 2022-041 Owner: SPXS Country: US Constellation: starlink operational
LEOCIRCULAR

現在のビュー

3D地球を読み込み中...

About Starlink 3739

Starlink 3739 (NORAD 52266) is a starlink constellation satellite (v1.5) launched Apr 21, 2022 by SPXS of US. It operates in LEO, CIRCULAR orbit with a mass of 297.00 kg.

次回通過

Passes for default location (London). Set your location on the main map for personalized predictions.

高度履歴

Loading altitude history...

軌道要素

1 52266U 22041F 26254.27121127 .00014799 00000-0 87616-3 0 9993
2 52266 53.2144 354.9306 0001086 119.2290 240.8812 15.11639461242393
Epoch: Sep 11, 2026 • Age: 11 hours

現在のステータス

高度 542.7 km
遠地点 / 近地点 N/A
速度 7.59 km/s
衛星直下点 -34.13°S, 70.55°E
打ち上げ日 Apr 21, 2022
運用期間 4.3 years
タイプ internet

技術仕様

分類 Payload
質量 297.00 kg
乾燥質量 275.00 kg
総質量 297.00 kg
長さ 0.20 m
直径 2.80 m
スパン 9.00 m
形状 Box + pan
製造者 SPXS
バスタイプ Starlink
フェーズステータス In Orbit
所有者/国 SPXS/US

Most Searched